SB KEPS @ AMSAT $ORB10203.N 2Line Orbital Elements 10203.AMSAT
HR AMSAT ORBITAL ELEMENTS FOR AMATEUR SATELLITES IN NASA FORMAT FROM WA5QGD FORT WORTH,TX July 22, 2010 Send Subscribe/unsubscribe to KEPS at http://www.amsat.org/mailman/listinfo/keps BID: ORB10203.N
DECODE 2-LINE ELSETS WITH THE FOLLOWING KEY: 1 AAAAAU 00 0 0 BBBBB.BBBBBBBB .CCCCCCCC 00000-0 00000-0 0 DDDZ 2 AAAAA EEE.EEEE FFF.FFFF GGGGGGG HHH.HHHH III.IIII JJ.JJJJJJJJKKKKKZ KEY: A-CATALOGNUM B-EPOCHTIME C-DECAY D-ELSETNUM E-INCLINATION F-RAAN G-ECCENTRICITY H-ARGPERIGEE I-MNANOM J-MNMOTION K-ORBITNUM Z-CHECKSUM
TO ALL RADIO AMATEURS BT
AO-07 1 07530U 74089B 10202.83857158 -.00000027 00000-0 10000-3 0 8334 2 07530 101.3998 217.3598 0011628 205.6732 154.3763 12.53579015632790 FO-29 1 24278U 96046B 10203.82357165 .00000039 00000-0 74031-4 0 3592 2 24278 098.5142 028.0255 0351254 031.5259 330.6417 13.52951792687921 SO-33 1 25509U 98061B 10202.50664022 .00000073 00000-0 29713-8 0 7577 2 25509 031.4352 314.4468 0354170 230.0106 126.8853 14.28317219612968 RS-22 1 27939U 03042A 10203.60973946 .00000114 00000-0 30814-4 0 3854 2 27939 097.8890 067.5859 0012716 311.7365 048.2766 14.63435253364132 VO-52 1 28650U 05017B 10202.91046188 .00000294 00000-0 43524-4 0 05595 2 28650 097.6892 254.9865 0027356 160.4070 199.8249 14.81775061281838 SO-67 1 35870U 09049F 10203.71898626 .00000499 00000-0 25541-4 0 9339 2 35870 097.3292 251.9109 0002990 007.7674 140.2814 15.20961812 46853 HO-68 1 36122U 09072B 10203.74393272 -.00000045 00000-0 00000 0 0 5091 2 36122 100.4666 263.8108 0007128 255.4030 104.6296 13.16281324 28890 UO-11 1 14781U 84021B 10202.84514274 .00000040 00000-0 12348-4 0 02951 2 14781 098.0541 254.6878 0009951 122.0698 238.1516 14.79817158416932 AO-16 1 20439U 90005D 10202.49964081 .00000021 00000-0 23401-4 0 09524 2 20439 098.3346 159.0592 0011937 066.0726 294.1703 14.31867462070298 LO-19 1 20442U 90005G 10202.77132708 .00000097 00000-0 51284-4 0 8603 2 20442 098.2959 164.9822 0012888 060.5288 299.7181 14.32098472 70503 AO-27 1 22825U 93061C 10202.66527062 -.00000059 00000-0 -63507-5 0 05850 2 22825 098.4860 149.7268 0008493 161.7969 198.3503 14.29302114876979 IO-26 1 22826U 93061D 10202.58457545 -.00000002 00000-0 15906-4 0 03225 2 22826 098.4809 150.2365 0009158 157.3996 202.7593 14.29558908877073 GO-32 1 25397U 98043D 10203.67542671 -.00000026 00000-0 65453-5 0 2400 2 25397 098.3130 209.1721 0001833 125.8997 234.2346 14.23181263625097 NO-44 1 26931U 01043C 10202.76450987 .00000082 00000-0 64135-4 0 5135 2 26931 067.0510 114.8892 0005314 264.7493 095.3009 14.29604150459694 SO-50 1 27607U 02058C 10203.34717699 -.00000102 00000-0 54558-5 0 2257 2 27607 064.5577 249.7225 0036320 060.4941 299.9754 14.71555338407555 CO-55 1 27844U 03031E 10203.59021581 .00000015 00000-0 27158-4 0 8957 2 27844 098.7091 212.0556 0010933 069.8526 290.3824 14.20718512366110 CO-57 1 27848U 03031J 10202.99105220 .00000018 00000-0 28500-4 0 8446 2 27848 098.7130 210.5646 0010814 074.6803 285.5579 14.20510442365980 AO-51 1 28375U 04025K 10203.01354987 .00000007 00000-0 14855-4 0 7306 2 28375 098.0636 194.5284 0084732 352.3248 007.6637 14.40691384318521 GENESAT1 1 29655U 06058C 10203.21549890 .00328761 56220-4 38245-3 0 1892 2 29655 040.0131 157.8553 0010723 228.6365 131.3614 16.07761132205603 CP3 1 31129U 07012N 10203.76754000 .00000111 00000-0 35850-4 0 6334 2 31129 097.9371 241.4311 0103617 122.7182 238.3961 14.52280267173023 CO-65 1 32785U 08021C 10202.26850736 -.00000144 00000-0 -11511-4 0 07383 2 32785 097.8940 266.7215 0015046 169.6834 190.4720 14.81679630120535 KKS-1 1 33493U 09002B 10203.72425857 .00000347 00000-0 51748-4 0 6843 2 33493 098.0893 323.5267 0020737 029.6514 330.5876 14.81038758 80741 SOHLA-1 1 33496U 09002E 10203.29597022 .00000090 00000-0 23482-4 0 1587 2 33496 098.0601 311.9206 0007669 090.4622 269.7468 14.69504228 80038 TISAT-1 1 36799U 10035E 10202.66634578 .00000705 00000-0 10000-3 0 00316 2 36799 098.1454 261.9473 0014274 264.4227 095.5353 14.80128876001415 STUDSAT 1 36801U 10035G 10203.68308363 .00000228 00000-0 30269-4 0 357 2 36801 098.1471 262.9730 0013690 253.3431 106.6779 14.79746647 1562 NOAA-10 1 16969U 86073A 10203.48154604 -.00000036 00000-0 32569-5 0 1412 2 16969 098.6559 232.1151 0013112 107.2984 252.9636 14.27421644240610 NOAA-11 1 19531U 88089A 10203.31470061 -.00000122 00000-0 -40646-4 0 1533 2 19531 098.7693 291.7424 0012313 050.1368 310.0895 14.14930159126108 NOAA-12 1 21263U 91032A 10203.51305183 .00000016 00000-0 25672-4 0 6418 2 21263 098.7645 216.6666 0013402 065.3136 294.9440 14.25644640997432 MET-3/5 1 21655U 91056A 10202.82198794 .00000051 00000-0 10000-3 0 8677 2 21655 082.5578 284.1669 0012098 261.8334 098.1450 13.17022003910230 MET-2/21 1 22782U 93055A 10203.58051172 .00000035 00000-0 18050-4 0 8364 2 22782 082.5458 224.3604 0021034 306.3386 053.5817 13.83645263852976 OKEAN-4 1 23317U 94066A 10203.74880827 .00000047 00000-0 27955-5 0 2910 2 23317 082.5424 320.6652 0023620 122.0925 238.2590 14.82837012851729 NOAA-14 1 23455U 94089A 10203.52772370 .00000024 00000-0 36220-4 0 1331 2 23455 098.8774 284.0246 0009952 131.5149 228.6878 14.13790434802499 NOAA-15 1 25338U 98030A 10203.75711618 .00000011 00000-0 23332-4 0 4559 2 25338 098.6204 190.0468 0010251 336.8674 023.2021 14.24842078633817 RESURS 1 25394U 98043A 10202.77272224 -.00000012 00000-0 12397-4 0 5586 2 25394 098.3041 218.9692 0002218 099.9757 260.1667 14.24206268625271 FENGYUN1 1 25730U 99025A 10202.90805683 .00000434 00000-0 27878-3 0 948 2 25730 098.7856 166.9590 0021576 165.0683 195.1123 14.08206700576578 OKEAN-0 1 25860U 99039A 10203.72416469 .00000043 00000-0 13951-4 0 537 2 25860 097.8348 175.2190 0001234 042.9210 317.2087 14.73650055592139 NOAA-16 1 26536U 00055A 10203.71327107 -.00000292 00000-0 -13259-3 0 9321 2 26536 099.1699 222.0187 0009789 234.8292 125.1948 14.12567338506845 NOAA-17 1 27453U 02032A 10203.68641516 -.00000007 00000-0 15194-4 0 9296 2 27453 098.4286 252.6973 0012322 038.0201 322.1862 14.24174647419758 NOAA-18 1 28654U 05018A 10203.67563259 .00000184 00000-0 12662-3 0 4143 2 28654 098.9505 149.8404 0013802 316.4857 043.5213 14.11374571266445 NOAA-19 1 33591U 09005A 10203.67140934 .00000331 00000-0 20780-3 0 6124 2 33591 098.7880 145.0399 0013899 185.3529 174.7480 14.11070681 74918 HUBBLE 1 20580U 90037B 10203.15521287 .00000367 00000-0 15227-4 0 6074 2 20580 028.4704 011.5685 0003323 211.0255 149.0127 15.01000605910018 ISS 1 25544U 98067A 10203.99595852 .00008007 00000-0 66380-4 0 5659 2 25544 051.6455 047.3099 0008320 136.8499 013.3321 15.71272503669101 CO-58 1 28895U 05043F 10203.21021823 .00000063 00000-0 22598-4 0 6377 2 28895 098.0106 086.5206 0017827 172.1562 187.9932 14.59911397252090 FALCON 1 30776U 07006E 10202.40894399 .00000372 00000-0 29642-4 0 08883 2 30776 035.4329 196.5174 0000399 074.7547 285.3213 15.03718478185214 MAST 1 31126U 07012K 10203.67251296 .00000028 00000-0 16417-4 0 9192 2 31126 097.9357 243.8460 0095644 115.4850 245.6263 14.53603337173211 CAPE1 1 31130U 07012P 10202.79383944 -.00000197 00000-0 -35000-4 0 9395 2 31130 097.9359 240.3522 0104001 126.3824 234.6971 14.52198371172689 COMPASS 1 32787U 08021E 10202.19984587 -.00000043 00000-0 12742-5 0 07317 2 32787 097.8929 266.4883 0015865 170.5262 189.6266 14.81910418120534 AAUSAT2 1 32788U 08021F 10203.14480724 .00000545 00000-0 75128-4 0 7220 2 32788 097.8921 267.5543 0015335 168.2345 191.9225 14.82058559120687 DO-64 1 32789U 08021G 10202.74510147 .00000617 00000-0 83876-4 0 07431 2 32789 097.8982 267.6725 0015850 167.8401 192.3202 14.82216443120620 CO-66 1 32791U 08021J 10203.64494972 .00000123 00000-0 22257-4 0 7237 2 32791 097.8939 267.9233 0016146 164.2715 195.8974 14.81692416120700 RS-30 1 32953U 08025A 10203.54463007 .00000010 00000-0 00000 0 0 8890 2 32953 082.5009 007.6863 0019380 028.2263 331.9863 12.43006625 98135 TACSAT-3 1 35001U 09028A 10202.89049264 .00003670 00000-0 88672-4 0 03406 2 35001 040.4564 005.6063 0022249 267.5387 092.2881 15.42063997065996 PHARMSAT 1 35002U 09028B 10203.80383344 .00003056 00000-0 73399-4 0 3216 2 35002 040.4702 357.9937 0025401 277.0448 082.7477 15.42566227 66159 HAWKSAT1 1 35003U 09028C 10203.83214184 .00006987 00000-0 14347-3 0 3443 2 35003 040.4610 351.5551 0023527 292.6975 067.1353 15.45933564 66239 CP6 1 35004U 09028D 10203.74424217 .00008347 00000-0 16516-3 0 3402 2 35004 040.4609 350.8789 0022413 294.7955 065.0532 15.46861821 66229 AEROCUB3 1 35005U 09028E 10202.83023761 .00026795 00000-0 41390-3 0 3866 2 35005 040.4686 352.1398 0020186 308.5721 051.3289 15.53219826 66133 CASTOR 1 35694U 09038F 10203.73087050 .00167107 25115-4 16669-3 0 5798 2 35694 051.6314 008.7596 0003721 308.6987 051.3827 16.10734995 56774 METEOR-M 1 35865U 09049A 10203.74231965 .00000176 00000-0 10000-3 0 4940 2 35865 098.7557 257.2838 0001712 277.7439 082.3511 14.21830954 43773 RS-38 1 35869U 09049E 10203.70996592 .00000177 00000-0 10000-3 0 5036 2 35869 098.7541 257.2860 0003887 266.5625 093.5095 14.21985499 43779 /EX
participants (1)
-
Ray Hoad